Tracking 31030 objects as of 15-Jul-2025
HD Live streaming from Space Station
objects crossing your sky now

COSMOS 2310

Track COSMOS 2310 now!
10-day predictions
COSMOS 2310 is classified as:


NORAD ID: 23526
Int'l Code: 1995-012A
Perigee: 981.5 km
Apogee: 1,015.5 km
Inclination: 82.9 °
Period: 104.9 minutes
Semi major axis: 7369 km
RCS: 2.0035 m2 (large)
Launch date: March 21, 1995
Source: Commonwealth of Independent States (former USSR) (CIS)
Launch site: PLESETSK MISSILE AND SPACE COMPLEX (PKMTR)
Your satellite tracking list
Your tracking list is empty




NASA's NSSDC Master Catalog

Two Line Element Set (TLE):
1 23526U 95012A   25195.61958443  .00000044  00000-0  31738-4 0  9991
2 23526  82.9451  37.6422 0023034 148.3570 271.1191 13.72292959517625
Source of the keplerian elements: AFSPC